Location: Adaghas
(31.2259°N, 9.0496°W)
Time: 04:08:49
(UTC+00:00)

CZ-4 R/B - Pass Details

Date: 18 September 2020
Orbit: 530 x 600 km, 97.7° (Epoch: 23 October)

Event Time Altitude Azimuth Distance (km) Brightness Sun altitude
Rises 20:16:09 0° 205° (SSW) 2,826 5.1 -21.6°
Reaches altitude 10° 20:19:02 10° 227° (SW) 1,933 4.5 -22.2°
Maximum altitude 20:21:38 16° 265° (W) 1,583 4.5 -22.8°
Drops below altitude 10° 20:24:15 10° 304° (NW) 1,942 5.1 -23.3°
Sets 20:27:11 0° 326° (NW) 2,845 5.7 -23.9°
